Date,TemperatureHighF,TemperatureAvgF,TemperatureLowF,DewpointHighF,DewpointAvgF,DewpointLowF,HumidityHigh,HumidityAvg,HumidityLow,PressureMaxIn,PressureMinIn,WindSpeedMaxMPH,WindSpeedAvgMPH,GustSpeedMaxMPH,PrecipitationSumIn
2013-3-1,54,46,40,38,35,31,88,64,46,29.94,29.84,8,2,8,0.00
2013-3-2,53,44,35,37,34,32,90,72,45,29.92,29.83,10,3,10,0.00
2013-3-3,50,41,33,35,30,27,91,67,43,30.01,29.88,13,3,13,0.00
2013-3-4,57,42,29,38,28,21,91,61,27,30.17,30.00,12,2,12,0.00
2013-3-5,65,54,40,57,45,38,99,75,37,30.11,29.70,17,4,17,0.03
2013-3-6,58,48,41,55,33,26,93,58,36,30.06,29.69,18,6,18,0.00
2013-3-7,62,46,35,41,34,30,93,66,35,30.21,30.06,12,3,12,0.00
2013-3-8,62,47,38,37,31,24,96,57,25,30.26,30.13,15,5,15,0.00
2013-3-9,64,48,37,42,36,30,95,67,38,30.30,30.21,14,3,14,0.00
2013-3-10,65,51,39,48,42,31,99,73,34,30.26,30.19,15,4,15,0.00
2013-3-11,70,60,47,60,54,46,98,83,61,30.19,29.90,18,5,18,0.00
2013-3-12,70,64,52,64,59,48,96,86,64,29.93,29.78,18,4,18,0.06
2013-3-13,68,55,42,48,37,28,94,56,24,30.11,29.93,16,3,16,0.00
2013-3-14,57,47,37,33,26,19,81,46,26,30.29,30.08,17,4,17,0.00
2013-3-15,69,51,36,49,38,28,93,66,29,30.21,30.03,12,3,12,0.00
2013-3-16,79,63,53,53,49,43,81,61,33,30.03,29.86,18,5,18,0.00
2013-3-17,77,64,56,59,54,50,86,69,47,30.02,29.94,15,4,15,0.00
2013-3-18,64,61,57,62,58,54,97,88,74,30.06,29.84,14,3,14,0.28
2013-3-19,77,63,54,61,52,30,99,71,32,29.97,29.80,12,3,12,0.21
2013-3-20,63,55,42,39,32,21,88,44,23,30.08,29.81,16,5,16,0.00
2013-3-21,61,46,39,39,30,16,93,59,19,29.93,29.77,12,2,12,0.00
2013-3-22,54,46,38,42,30,19,80,55,42,30.07,29.92,13,4,13,0.00
2013-3-23,56,50,43,52,46,40,98,88,64,30.03,29.84,14,4,14,0.76
2013-3-24,67,55,47,67,54,46,100,97,93,29.85,29.43,21,6,21,3.10
2013-3-25,58,50,43,48,36,22,98,64,30,29.95,29.57,18,5,18,0.00
2013-3-26,53,44,34,32,29,26,75,56,40,30.16,29.94,14,4,14,0.00
2013-3-27,61,46,33,35,31,27,90,59,30,30.25,30.14,13,2,13,0.00
2013-3-28,64,49,38,37,31,25,93,55,26,30.28,30.16,14,3,14,0.00
2013-3-29,65,50,38,44,38,34,97,67,34,30.33,30.20,14,2,14,0.00
2013-3-30,74,57,47,52,48,45,96,76,36,30.23,30.10,12,2,12,0.00
2013-3-31,74,66,56,60,56,52,90,73,57,30.04,29.88,12,4,12,0.02